Time,TemperatureF,DewpointF,PressureIn,WindDirection,WindDirectionDegrees,WindSpeedMPH,WindSpeedGustMPH,Humidity,HourlyPrecipIn,Conditions,Clouds,dailyrainin,SoftwareType,DateUTC
2013-06-04 00:01:00,77.1,71.9,29.68,WSW,248,0.0,0.0,84,0.00,,---,0.00,VWS V13.01,2013-06-04 04:01:00,
2013-06-04 00:02:00,77.1,71.9,29.68,WSW,248,0.0,0.0,84,0.00,,---,0.00,VWS V13.01,2013-06-04 04:02:00,
2013-06-04 00:03:00,77.1,71.9,29.68,WSW,248,0.0,0.0,84,0.00,,---,0.00,VWS V13.01,2013-06-04 04:03:00,
2013-06-04 00:05:00,77.1,71.9,29.68,WSW,248,0.0,0.0,84,0.00,,---,0.00,VWS V13.01,2013-06-04 04:05:00,
2013-06-04 00:06:00,77.1,71.9,29.68,WSW,248,0.0,0.0,84,0.00,,---,0.00,VWS V13.01,2013-06-04 04:06:00,
2013-06-04 00:11:00,77.1,71.9,29.68,WSW,248,0.0,0.0,84,0.00,,---,0.00,VWS V13.01,2013-06-04 04:11:00,
2013-06-04 00:16:00,77.1,71.9,29.68,WSW,248,0.0,0.0,84,0.00,,---,0.00,VWS V13.01,2013-06-04 04:16:00,
2013-06-04 00:21:00,77.1,71.9,29.67,WSW,248,0.0,0.0,84,0.00,,---,0.00,VWS V13.01,2013-06-04 04:21:00,
2013-06-04 00:26:00,77.1,71.9,29.67,WSW,248,0.0,0.0,84,0.00,,---,0.00,VWS V13.01,2013-06-04 04:26:00,
2013-06-04 00:31:00,77.1,71.9,29.67,WSW,248,0.0,0.0,84,0.00,,---,0.00,VWS V13.01,2013-06-04 04:31:00,
2013-06-04 00:36:00,77.1,71.9,29.67,WSW,248,0.0,0.0,84,0.00,,---,0.00,VWS V13.01,2013-06-04 04:36:00,
2013-06-04 00:41:00,77.1,71.9,29.67,WSW,248,0.0,0.0,84,0.00,,---,0.00,VWS V13.01,2013-06-04 04:41:00,
2013-06-04 00:46:00,77.1,71.9,29.67,WSW,248,0.0,0.0,84,0.00,,---,0.00,VWS V13.01,2013-06-04 04:46:00,
2013-06-04 00:51:00,77.1,72.2,29.66,WSW,248,0.0,0.0,85,0.00,,---,0.00,VWS V13.01,2013-06-04 04:51:00,
2013-06-04 00:56:00,77.1,72.2,29.66,WSW,248,0.0,0.0,85,0.00,,---,0.00,VWS V13.01,2013-06-04 04:56:00,
2013-06-04 01:01:00,77.1,72.2,29.66,WSW,248,0.0,0.0,85,0.00,,---,0.00,VWS V13.01,2013-06-04 05:01:00,
2013-06-04 01:06:00,77.0,72.2,29.66,WSW,248,0.0,0.0,85,0.00,,---,0.00,VWS V13.01,2013-06-04 05:06:00,
2013-06-04 01:11:00,77.0,72.2,29.66,WSW,248,0.0,0.0,85,0.00,,---,0.00,VWS V13.01,2013-06-04 05:11:00,
2013-06-04 01:16:00,77.0,72.2,29.66,WSW,248,0.0,0.0,85,0.00,,---,0.00,VWS V13.01,2013-06-04 05:16:00,
2013-06-04 01:21:00,77.0,72.2,29.66,WSW,248,0.0,0.0,85,0.00,,---,0.00,VWS V13.01,2013-06-04 05:21:00,
2013-06-04 01:26:00,76.8,71.9,29.65,WSW,248,0.0,0.0,85,0.00,,---,0.00,VWS V13.01,2013-06-04 05:26:00,
2013-06-04 01:31:00,76.8,71.9,29.65,WSW,248,0.0,0.0,85,0.00,,---,0.00,VWS V13.01,2013-06-04 05:31:00,
2013-06-04 01:36:00,76.8,71.9,29.65,SW,225,0.0,0.0,85,0.00,,---,0.00,VWS V13.01,2013-06-04 05:36:00,
2013-06-04 01:41:00,76.6,71.8,29.65,SW,225,0.0,0.0,85,0.00,,---,0.00,VWS V13.01,2013-06-04 05:41:00,
2013-06-04 01:46:00,76.6,71.8,29.65,SW,225,0.0,0.0,85,0.00,,---,0.00,VWS V13.01,2013-06-04 05:46:00,
2013-06-04 01:51:00,76.4,71.6,29.65,SW,225,0.0,0.0,85,0.00,,---,0.00,VWS V13.01,2013-06-04 05:51:00,
2013-06-04 01:56:00,76.6,71.8,29.65,SW,225,0.0,0.0,85,0.00,,---,0.00,VWS V13.01,2013-06-04 05:56:00,
2013-06-04 02:01:00,76.6,71.8,29.65,SW,225,0.0,0.0,85,0.00,,---,0.00,VWS V13.01,2013-06-04 06:01:00,
2013-06-04 02:06:00,76.6,71.8,29.65,SW,225,0.0,0.0,85,0.00,,---,0.00,VWS V13.01,2013-06-04 06:06:00,
2013-06-04 02:11:00,76.6,71.8,29.65,SW,225,0.0,0.0,85,0.00,,---,0.00,VWS V13.01,2013-06-04 06:11:00,
2013-06-04 02:16:00,76.6,71.8,29.65,SW,225,0.0,0.0,85,0.00,,---,0.00,VWS V13.01,2013-06-04 06:16:00,
2013-06-04 02:21:00,76.2,71.4,29.65,SW,225,0.0,0.0,85,0.00,,---,0.00,VWS V13.01,2013-06-04 06:21:00,
2013-06-04 02:26:00,76.2,71.4,29.65,SW,225,0.0,0.0,85,0.00,,---,0.00,VWS V13.01,2013-06-04 06:26:00,
2013-06-04 02:31:00,76.4,71.6,29.65,SW,225,0.0,0.0,85,0.00,,---,0.00,VWS V13.01,2013-06-04 06:31:00,
2013-06-04 02:36:00,76.2,71.4,29.65,SW,225,0.0,0.0,85,0.00,,---,0.00,VWS V13.01,2013-06-04 06:36:00,
2013-06-04 02:41:00,76.2,71.4,29.65,SW,225,0.0,0.0,85,0.00,,---,0.00,VWS V13.01,2013-06-04 06:41:00,
2013-06-04 02:46:00,76.2,71.4,29.65,SW,225,0.0,0.0,85,0.00,,---,0.00,VWS V13.01,2013-06-04 06:46:00,
2013-06-04 02:51:00,76.2,71.4,29.64,SW,225,0.0,0.0,85,0.00,,---,0.00,VWS V13.01,2013-06-04 06:51:00,
2013-06-04 02:56:00,76.2,71.4,29.64,SW,225,0.0,0.0,85,0.00,,---,0.00,VWS V13.01,2013-06-04 06:56:00,
2013-06-04 03:01:00,76.2,71.4,29.64,SW,225,0.0,0.0,85,0.00,,---,0.00,VWS V13.01,2013-06-04 07:01:00,
2013-06-04 03:06:00,76.2,71.4,29.64,SW,225,0.0,0.0,85,0.00,,---,0.00,VWS V13.01,2013-06-04 07:06:00,
2013-06-04 03:11:00,76.1,71.3,29.64,SW,225,0.0,0.0,85,0.00,,---,0.00,VWS V13.01,2013-06-04 07:11:00,
2013-06-04 03:16:00,76.1,71.3,29.64,SW,225,0.0,0.0,85,0.00,,---,0.00,VWS V13.01,2013-06-04 07:16:00,
2013-06-04 03:21:00,76.1,71.3,29.63,SW,225,0.0,0.0,85,0.00,,---,0.00,VWS V13.01,2013-06-04 07:21:00,
2013-06-04 03:26:00,76.1,71.3,29.63,SW,225,0.0,0.0,85,0.00,,---,0.00,VWS V13.01,2013-06-04 07:26:00,
2013-06-04 03:31:00,76.1,71.3,29.63,SW,225,0.0,0.0,85,0.00,,---,0.00,VWS V13.01,2013-06-04 07:31:00,
2013-06-04 03:36:00,76.1,71.3,29.63,SW,225,0.0,0.0,85,0.00,,---,0.00,VWS V13.01,2013-06-04 07:36:00,
2013-06-04 03:41:00,76.1,71.3,29.63,SW,225,0.0,0.0,85,0.00,,---,0.00,VWS V13.01,2013-06-04 07:41:00,
2013-06-04 03:46:00,76.1,71.6,29.63,SW,225,0.0,0.0,86,0.00,,---,0.00,VWS V13.01,2013-06-04 07:46:00,
2013-06-04 03:51:00,75.9,71.4,29.62,SW,225,0.0,0.0,86,0.00,,---,0.00,VWS V13.01,2013-06-04 07:51:00,
2013-06-04 03:56:00,75.9,71.4,29.62,SW,225,0.0,0.0,86,0.00,,---,0.00,VWS V13.01,2013-06-04 07:56:00,
2013-06-04 04:01:00,75.9,71.4,29.62,SW,225,0.0,0.0,86,0.00,,---,0.00,VWS V13.01,2013-06-04 08:01:00,
2013-06-04 04:06:00,75.9,71.4,29.62,SW,225,0.0,0.0,86,0.00,,---,0.00,VWS V13.01,2013-06-04 08:06:00,
2013-06-04 04:11:00,75.7,71.2,29.62,SW,225,0.0,0.0,86,0.00,,---,0.00,VWS V13.01,2013-06-04 08:11:00,
2013-06-04 04:16:00,75.7,71.2,29.61,SW,225,0.0,0.0,86,0.00,,---,0.00,VWS V13.01,2013-06-04 08:16:00,
2013-06-04 04:21:00,75.5,71.0,29.61,SSW,202,0.0,0.0,86,0.00,,---,0.00,VWS V13.01,2013-06-04 08:21:00,
2013-06-04 04:26:00,75.5,71.0,29.61,SSW,202,0.0,0.0,86,0.00,,---,0.00,VWS V13.01,2013-06-04 08:26:00,
2013-06-04 04:31:00,75.3,70.8,29.61,SSW,202,0.0,0.0,86,0.00,,---,0.00,VWS V13.01,2013-06-04 08:31:00,
2013-06-04 04:36:00,75.5,71.0,29.61,SSW,202,0.0,0.0,86,0.00,,---,0.00,VWS V13.01,2013-06-04 08:36:00,
2013-06-04 04:41:00,75.3,70.8,29.61,SSW,202,0.0,0.0,86,0.00,,---,0.00,VWS V13.01,2013-06-04 08:41:00,
2013-06-04 04:46:00,75.5,71.0,29.61,SSW,202,0.0,0.0,86,0.00,,---,0.00,VWS V13.01,2013-06-04 08:46:00,
2013-06-04 04:51:00,75.3,70.8,29.61,SSW,202,0.0,0.0,86,0.00,,---,0.00,VWS V13.01,2013-06-04 08:51:00,
2013-06-04 04:56:00,75.3,70.8,29.61,SSW,202,0.0,0.0,86,0.00,,---,0.00,VWS V13.01,2013-06-04 08:56:00,
2013-06-04 05:01:00,75.3,70.8,29.61,SSW,202,0.0,0.0,86,0.00,,---,0.00,VWS V13.01,2013-06-04 09:01:00,
2013-06-04 05:06:00,75.3,70.8,29.61,SSW,202,0.0,0.0,86,0.00,,---,0.00,VWS V13.01,2013-06-04 09:06:00,
2013-06-04 05:11:00,75.3,70.8,29.61,SSW,202,0.0,0.0,86,0.00,,---,0.00,VWS V13.01,2013-06-04 09:11:00,
2013-06-04 05:16:00,75.3,70.8,29.61,SSW,202,0.0,0.0,86,0.00,,---,0.00,VWS V13.01,2013-06-04 09:16:00,
2013-06-04 05:21:00,75.3,70.8,29.61,SSW,202,0.0,0.0,86,0.00,,---,0.00,VWS V13.01,2013-06-04 09:21:00,
2013-06-04 05:26:00,75.3,70.8,29.61,SSW,202,0.0,0.0,86,0.00,,---,0.00,VWS V13.01,2013-06-04 09:26:00,
2013-06-04 05:31:00,75.3,70.8,29.61,SSW,202,0.0,0.0,86,0.00,,---,0.00,VWS V13.01,2013-06-04 09:31:00,
2013-06-04 05:36:00,75.5,71.0,29.61,SSW,202,0.0,0.0,86,0.00,,---,0.00,VWS V13.01,2013-06-04 09:36:00,
2013-06-04 05:41:00,75.5,71.0,29.61,SSW,202,0.0,0.0,86,0.00,,---,0.00,VWS V13.01,2013-06-04 09:41:00,
2013-06-04 05:46:00,75.5,71.0,29.62,SSW,202,0.0,0.0,86,0.00,,---,0.00,VWS V13.01,2013-06-04 09:46:00,
2013-06-04 05:51:00,75.3,70.8,29.62,SSW,202,0.0,0.0,86,0.00,,---,0.00,VWS V13.01,2013-06-04 09:51:00,
2013-06-04 05:56:00,75.3,70.8,29.62,SSW,202,0.0,0.0,86,0.00,,---,0.00,VWS V13.01,2013-06-04 09:56:00,
2013-06-04 06:01:00,75.3,70.8,29.62,SSW,202,0.0,0.0,86,0.00,,---,0.00,VWS V13.01,2013-06-04 10:01:00,
2013-06-04 06:06:00,75.5,71.0,29.62,SSW,202,0.0,0.0,86,0.00,,---,0.00,VWS V13.01,2013-06-04 10:06:00,
2013-06-04 06:11:00,75.3,70.8,29.62,SSW,202,0.0,0.0,86,0.00,,---,0.00,VWS V13.01,2013-06-04 10:11:00,
2013-06-04 06:16:00,75.3,70.8,29.62,SSW,202,0.0,0.0,86,0.00,,---,0.00,VWS V13.01,2013-06-04 10:16:00,
2013-06-04 06:21:00,75.3,70.8,29.63,SSW,202,0.0,0.0,86,0.00,,---,0.00,VWS V13.01,2013-06-04 10:21:00,
2013-06-04 06:26:00,75.5,71.0,29.63,SSW,202,0.0,0.0,86,0.00,,---,0.00,VWS V13.01,2013-06-04 10:26:00,
2013-06-04 06:31:00,75.3,70.8,29.63,SSW,202,0.0,0.0,86,0.00,,---,0.00,VWS V13.01,2013-06-04 10:31:00,
2013-06-04 06:36:00,75.3,70.8,29.63,SSW,202,0.0,0.0,86,0.00,,---,0.00,VWS V13.01,2013-06-04 10:36:00,
2013-06-04 06:41:00,75.3,70.8,29.63,SSW,202,0.0,0.0,86,0.00,,---,0.00,VWS V13.01,2013-06-04 10:41:00,
2013-06-04 06:46:00,75.3,71.2,29.63,SSW,202,0.0,0.0,87,0.00,,---,0.00,VWS V13.01,2013-06-04 10:46:00,
2013-06-04 06:51:00,75.3,71.2,29.63,SSW,202,0.0,0.0,87,0.00,,---,0.00,VWS V13.01,2013-06-04 10:51:00,
2013-06-04 06:56:00,75.3,71.2,29.63,SSW,202,0.0,0.0,87,0.00,,---,0.00,VWS V13.01,2013-06-04 10:56:00,
2013-06-04 07:01:00,75.3,71.2,29.63,SSW,202,0.0,0.0,87,0.00,,---,0.00,VWS V13.01,2013-06-04 11:01:00,
2013-06-04 07:06:00,75.5,71.4,29.63,SSW,202,0.0,0.0,87,0.00,,---,0.00,VWS V13.01,2013-06-04 11:06:00,
2013-06-04 07:11:00,75.5,71.4,29.63,SSW,202,0.0,0.0,87,0.00,,---,0.00,VWS V13.01,2013-06-04 11:11:00,
2013-06-04 07:16:00,75.5,71.4,29.63,SSW,202,0.0,0.0,87,0.00,,---,0.00,VWS V13.01,2013-06-04 11:16:00,
2013-06-04 07:21:00,75.5,71.4,29.63,SSW,202,0.0,0.0,87,0.00,,---,0.00,VWS V13.01,2013-06-04 11:21:00,
2013-06-04 07:26:00,75.5,71.4,29.64,SSW,202,0.0,0.0,87,0.00,,---,0.00,VWS V13.01,2013-06-04 11:26:00,
2013-06-04 07:31:00,75.7,71.6,29.64,SSW,202,0.0,0.0,87,0.00,,---,0.00,VWS V13.01,2013-06-04 11:31:00,
2013-06-04 07:36:00,75.9,71.8,29.64,SSW,202,0.0,0.0,87,0.00,,---,0.00,VWS V13.01,2013-06-04 11:36:00,
2013-06-04 07:41:00,75.9,71.8,29.64,SSW,202,0.0,0.0,87,0.00,,---,0.00,VWS V13.01,2013-06-04 11:41:00,
2013-06-04 07:46:00,76.1,71.9,29.64,SSW,202,0.0,0.0,87,0.00,,---,0.00,VWS V13.01,2013-06-04 11:46:00,
2013-06-04 07:51:00,76.4,72.2,29.65,SSW,202,0.0,0.0,87,0.00,,---,0.00,VWS V13.01,2013-06-04 11:51:00,
2013-06-04 07:56:00,76.6,72.4,29.65,SSW,202,0.0,0.0,87,0.00,,---,0.00,VWS V13.01,2013-06-04 11:56:00,
2013-06-04 08:01:00,76.8,72.6,29.65,SSW,202,0.0,0.0,87,0.00,,---,0.00,VWS V13.01,2013-06-04 12:01:00,
2013-06-04 08:06:00,76.8,72.6,29.65,SSW,202,0.0,0.0,87,0.00,,---,0.00,VWS V13.01,2013-06-04 12:06:00,
2013-06-04 08:11:00,77.0,72.8,29.65,SSW,202,0.0,0.0,87,0.00,,---,0.00,VWS V13.01,2013-06-04 12:11:00,
2013-06-04 08:16:00,77.1,72.9,29.65,SSW,202,0.0,0.0,87,0.00,,---,0.00,VWS V13.01,2013-06-04 12:16:00,
2013-06-04 08:21:00,77.1,72.9,29.66,SSW,202,0.0,0.0,87,0.00,,---,0.00,VWS V13.01,2013-06-04 12:21:00,
2013-06-04 08:26:00,77.1,72.9,29.66,SSW,202,0.0,0.0,87,0.00,,---,0.00,VWS V13.01,2013-06-04 12:26:00,
2013-06-04 08:31:00,77.1,72.9,29.66,SSW,202,0.0,0.0,87,0.00,,---,0.00,VWS V13.01,2013-06-04 12:31:00,
2013-06-04 08:36:00,77.1,72.9,29.67,SSW,202,0.0,0.0,87,0.00,,---,0.00,VWS V13.01,2013-06-04 12:36:00,
2013-06-04 08:41:00,77.1,72.9,29.67,SSW,202,0.0,0.0,87,0.00,,---,0.00,VWS V13.01,2013-06-04 12:41:00,
2013-06-04 08:46:00,77.1,72.9,29.67,SSW,202,0.0,0.0,87,0.00,,---,0.00,VWS V13.01,2013-06-04 12:46:00,
2013-06-04 08:51:00,77.5,73.3,29.67,SSW,202,0.0,0.0,87,0.00,,---,0.00,VWS V13.01,2013-06-04 12:51:00,
2013-06-04 08:56:00,77.5,73.3,29.67,SSW,202,0.0,0.0,87,0.00,,---,0.00,VWS V13.01,2013-06-04 12:56:00,
2013-06-04 09:01:00,77.5,73.3,29.67,SSW,202,0.0,0.0,87,0.00,,---,0.00,VWS V13.01,2013-06-04 13:01:00,
2013-06-04 09:06:00,77.7,73.5,29.67,SSW,202,0.0,0.0,87,0.00,,---,0.00,VWS V13.01,2013-06-04 13:06:00,
2013-06-04 09:11:00,77.9,73.7,29.68,SSW,202,0.0,0.0,87,0.00,,---,0.00,VWS V13.01,2013-06-04 13:11:00,
2013-06-04 09:16:00,77.7,73.5,29.68,SSW,202,0.0,0.0,87,0.00,,---,0.00,VWS V13.01,2013-06-04 13:16:00,
2013-06-04 09:21:00,78.0,73.8,29.68,SSW,202,0.0,0.0,87,0.00,,---,0.00,VWS V13.01,2013-06-04 13:21:00,
2013-06-04 09:26:00,78.0,73.8,29.68,SSW,202,0.0,0.0,87,0.00,,---,0.00,VWS V13.01,2013-06-04 13:26:00,
2013-06-04 09:31:00,78.2,74.0,29.69,SSW,202,0.0,0.0,87,0.00,,---,0.00,VWS V13.01,2013-06-04 13:31:00,
2013-06-04 09:36:00,78.6,74.4,29.69,SSW,202,0.0,0.0,87,0.00,,---,0.00,VWS V13.01,2013-06-04 13:36:00,
2013-06-04 09:41:00,78.9,74.7,29.69,SSW,202,0.0,0.0,87,0.00,,---,0.00,VWS V13.01,2013-06-04 13:41:00,
2013-06-04 09:46:00,79.1,74.9,29.69,SSW,202,0.0,0.0,87,0.00,,---,0.00,VWS V13.01,2013-06-04 13:46:00,
2013-06-04 09:51:00,79.5,75.3,29.69,SSW,202,0.0,0.0,87,0.00,,---,0.00,VWS V13.01,2013-06-04 13:51:00,
2013-06-04 09:56:00,79.7,75.5,29.69,SSW,202,0.0,0.0,87,0.00,,---,0.00,VWS V13.01,2013-06-04 13:56:00,
2013-06-04 10:01:00,79.8,75.2,29.69,SSW,202,0.0,0.0,86,0.00,,---,0.00,VWS V13.01,2013-06-04 14:01:00,
2013-06-04 10:06:00,80.2,75.6,29.69,SSW,202,0.0,0.0,86,0.00,,---,0.00,VWS V13.01,2013-06-04 14:06:00,
2013-06-04 10:11:00,80.4,75.8,29.69,SSW,202,0.0,0.0,86,0.00,,---,0.00,VWS V13.01,2013-06-04 14:11:00,
2013-06-04 10:16:00,80.6,76.0,29.69,SSW,202,0.0,0.0,86,0.00,,---,0.00,VWS V13.01,2013-06-04 14:16:00,
2013-06-04 10:21:00,81.1,76.2,29.70,SSW,202,0.0,0.0,85,0.00,,---,0.00,VWS V13.01,2013-06-04 14:21:00,
2013-06-04 10:26:00,81.3,76.4,29.70,SSW,202,0.0,0.0,85,0.00,,---,0.00,VWS V13.01,2013-06-04 14:26:00,
2013-06-04 10:31:00,81.6,76.7,29.70,SSW,202,0.0,0.0,85,0.00,,---,0.00,VWS V13.01,2013-06-04 14:31:00,
2013-06-04 10:36:00,81.6,76.3,29.70,SSW,202,0.0,0.0,84,0.00,,---,0.00,VWS V13.01,2013-06-04 14:36:00,
2013-06-04 10:41:00,81.8,76.1,29.70,SSW,202,0.0,0.0,83,0.00,,---,0.00,VWS V13.01,2013-06-04 14:41:00,
2013-06-04 10:46:00,82.0,76.3,29.69,SSW,202,0.0,0.0,83,0.00,,---,0.00,VWS V13.01,2013-06-04 14:46:00,
2013-06-04 10:51:00,82.2,76.5,29.70,SSW,202,0.0,0.0,83,0.00,,---,0.00,VWS V13.01,2013-06-04 14:51:00,
2013-06-04 10:56:00,82.2,76.2,29.70,SSW,202,0.0,0.0,82,0.00,,---,0.00,VWS V13.01,2013-06-04 14:56:00,
2013-06-04 11:01:00,82.5,76.4,29.70,SSW,202,0.0,0.0,82,0.00,,---,0.00,VWS V13.01,2013-06-04 15:01:00,
2013-06-04 11:06:00,82.7,76.7,29.70,SSW,202,0.0,0.0,82,0.00,,---,0.00,VWS V13.01,2013-06-04 15:06:00,
2013-06-04 11:11:00,82.9,76.5,29.71,SSW,202,0.0,0.0,81,0.00,,---,0.00,VWS V13.01,2013-06-04 15:11:00,
2013-06-04 11:16:00,82.9,76.5,29.71,SW,225,0.0,0.0,81,0.00,,---,0.00,VWS V13.01,2013-06-04 15:16:00,
2013-06-04 11:21:00,83.3,76.5,29.71,SW,225,0.0,0.0,80,0.00,,---,0.00,VWS V13.01,2013-06-04 15:21:00,
2013-06-04 11:26:00,83.4,76.2,29.71,SW,225,0.0,0.0,79,0.00,,---,0.00,VWS V13.01,2013-06-04 15:26:00,
2013-06-04 11:31:00,83.8,76.6,29.71,SW,225,0.0,0.0,79,0.00,,---,0.00,VWS V13.01,2013-06-04 15:31:00,
2013-06-04 11:36:00,83.8,76.6,29.71,SW,225,0.0,0.0,79,0.00,,---,0.00,VWS V13.01,2013-06-04 15:36:00,
2013-06-04 11:41:00,83.8,76.6,29.71,SW,225,0.0,0.0,79,0.00,,---,0.00,VWS V13.01,2013-06-04 15:41:00,
2013-06-04 11:46:00,84.0,76.4,29.71,SSW,202,0.0,0.0,78,0.00,,---,0.00,VWS V13.01,2013-06-04 15:46:00,
2013-06-04 11:51:00,84.0,76.0,29.71,SSW,202,0.0,0.0,77,0.00,,---,0.00,VWS V13.01,2013-06-04 15:51:00,
2013-06-04 11:56:00,84.0,76.0,29.70,SW,225,0.0,0.0,77,0.00,,---,0.00,VWS V13.01,2013-06-04 15:56:00,
2013-06-04 12:01:00,84.0,76.0,29.71,SW,225,0.0,0.0,77,0.00,,---,0.00,VWS V13.01,2013-06-04 16:01:00,
2013-06-04 12:06:00,84.0,75.6,29.71,SW,225,0.0,0.0,76,0.00,,---,0.00,VWS V13.01,2013-06-04 16:06:00,
2013-06-04 12:12:00,83.8,75.4,29.71,SW,225,0.0,0.0,76,0.00,,---,0.00,VWS V13.01,2013-06-04 16:12:00,
2013-06-04 12:17:00,83.8,75.4,29.71,SW,225,0.0,0.0,76,0.00,,---,0.00,VWS V13.01,2013-06-04 16:17:00,
2013-06-04 12:22:00,83.8,75.4,29.71,SW,225,0.0,0.0,76,0.00,,---,0.00,VWS V13.01,2013-06-04 16:22:00,
2013-06-04 12:27:00,83.8,75.4,29.70,SW,225,0.0,0.0,76,0.00,,---,0.00,VWS V13.01,2013-06-04 16:27:00,
2013-06-04 12:32:00,83.8,75.4,29.70,SW,225,0.0,0.0,76,0.00,,---,0.00,VWS V13.01,2013-06-04 16:32:00,
2013-06-04 12:37:00,83.8,75.4,29.70,SW,225,0.0,0.0,76,0.00,,---,0.00,VWS V13.01,2013-06-04 16:37:00,
2013-06-04 12:42:00,83.8,75.4,29.70,SW,225,0.0,0.0,76,0.00,,---,0.00,VWS V13.01,2013-06-04 16:42:00,
2013-06-04 12:47:00,83.8,75.4,29.70,SW,225,0.0,0.0,76,0.00,,---,0.00,VWS V13.01,2013-06-04 16:47:00,
2013-06-04 12:52:00,84.0,75.2,29.70,SW,225,0.0,0.0,75,0.00,,---,0.00,VWS V13.01,2013-06-04 16:52:00,
2013-06-04 12:57:00,84.0,75.6,29.70,SW,225,0.0,0.0,76,0.00,,---,0.00,VWS V13.01,2013-06-04 16:57:00,
2013-06-04 13:02:00,84.0,75.6,29.70,SW,225,0.0,0.0,76,0.00,,---,0.00,VWS V13.01,2013-06-04 17:02:00,
2013-06-04 13:07:00,84.0,75.6,29.70,SW,225,0.0,0.0,76,0.00,,---,0.00,VWS V13.01,2013-06-04 17:07:00,
2013-06-04 13:12:00,84.7,76.3,29.70,SW,225,0.0,0.0,76,0.00,,---,0.00,VWS V13.01,2013-06-04 17:12:00,
2013-06-04 13:17:00,84.9,75.7,29.69,SW,225,0.0,0.0,74,0.00,,---,0.00,VWS V13.01,2013-06-04 17:17:00,
2013-06-04 13:22:00,85.1,75.9,29.69,SW,225,0.0,0.0,74,0.00,,---,0.00,VWS V13.01,2013-06-04 17:22:00,
2013-06-04 13:28:00,85.2,75.2,29.69,SW,225,0.0,0.0,72,0.00,,---,0.00,VWS V13.01,2013-06-04 17:28:00,
2013-06-04 13:33:00,85.2,75.2,29.69,SW,225,0.0,0.0,72,0.00,,---,0.00,VWS V13.01,2013-06-04 17:33:00,
2013-06-04 13:38:00,85.2,75.2,29.69,SW,225,0.0,0.0,72,0.00,,---,0.00,VWS V13.01,2013-06-04 17:38:00,
2013-06-04 13:43:00,85.2,75.2,29.68,SW,225,0.0,0.0,72,0.00,,---,0.00,VWS V13.01,2013-06-04 17:43:00,
2013-06-04 13:48:00,85.2,75.2,29.68,SW,225,0.0,0.0,72,0.00,,---,0.00,VWS V13.01,2013-06-04 17:48:00,
2013-06-04 13:53:00,85.2,75.2,29.68,SW,225,0.0,0.0,72,0.00,,---,0.00,VWS V13.01,2013-06-04 17:53:00,
2013-06-04 13:58:00,85.2,75.2,29.68,SW,225,0.0,0.0,72,0.00,,---,0.00,VWS V13.01,2013-06-04 17:58:00,
2013-06-04 14:03:00,85.2,75.2,29.68,SW,225,0.0,0.0,72,0.00,,---,0.00,VWS V13.01,2013-06-04 18:03:00,
2013-06-04 14:09:00,85.2,75.2,29.68,SW,225,0.0,0.0,72,0.00,,---,0.00,VWS V13.01,2013-06-04 18:09:00,
2013-06-04 14:14:00,85.2,75.2,29.68,SW,225,0.0,0.0,72,0.00,,---,0.00,VWS V13.01,2013-06-04 18:14:00,
2013-06-04 14:19:00,84.5,73.7,29.67,SW,225,0.0,0.0,70,0.00,,---,0.00,VWS V13.01,2013-06-04 18:19:00,
2013-06-04 14:24:00,84.5,73.7,29.67,SW,225,0.0,0.0,70,0.00,,---,0.00,VWS V13.01,2013-06-04 18:24:00,
2013-06-04 14:29:00,84.5,73.7,29.67,SW,225,0.0,0.0,70,0.00,,---,0.00,VWS V13.01,2013-06-04 18:29:00,
2013-06-04 14:34:00,84.7,73.8,29.66,SW,225,0.0,0.0,70,0.00,,---,0.00,VWS V13.01,2013-06-04 18:34:00,
2013-06-04 14:39:00,84.7,73.8,29.66,SW,225,0.0,0.0,70,0.00,,---,0.00,VWS V13.01,2013-06-04 18:39:00,
2013-06-04 14:44:00,84.7,72.5,29.66,West,270,0.0,0.0,67,0.00,,---,0.00,VWS V13.01,2013-06-04 18:44:00,
2013-06-04 14:49:00,84.7,72.5,29.66,West,270,0.0,0.0,67,0.00,,---,0.00,VWS V13.01,2013-06-04 18:49:00,
2013-06-04 14:54:00,84.7,72.1,29.66,West,270,0.0,0.0,66,0.00,,---,0.00,VWS V13.01,2013-06-04 18:54:00,
2013-06-04 15:00:00,84.7,72.1,29.66,West,270,0.0,0.0,66,0.00,,---,0.00,VWS V13.01,2013-06-04 19:00:00,
2013-06-04 15:05:00,84.7,72.1,29.66,West,270,0.0,0.0,66,0.00,,---,0.00,VWS V13.01,2013-06-04 19:05:00,
2013-06-04 15:10:00,84.7,72.1,29.66,West,270,0.0,0.0,66,0.00,,---,0.00,VWS V13.01,2013-06-04 19:10:00,
2013-06-04 15:15:00,84.7,72.1,29.66,West,270,0.0,0.0,66,0.00,,---,0.00,VWS V13.01,2013-06-04 19:15:00,
2013-06-04 15:20:00,84.7,72.1,29.66,West,270,0.0,0.0,66,0.00,,---,0.00,VWS V13.01,2013-06-04 19:20:00,
2013-06-04 15:25:00,84.7,72.1,29.65,West,270,0.0,0.0,66,0.00,,---,0.00,VWS V13.01,2013-06-04 19:25:00,
2013-06-04 15:30:00,84.7,72.1,29.66,West,270,0.0,0.0,66,0.00,,---,0.00,VWS V13.01,2013-06-04 19:30:00,
2013-06-04 15:35:00,84.5,71.0,29.66,West,270,0.0,0.0,64,0.00,,---,0.00,VWS V13.01,2013-06-04 19:35:00,
2013-06-04 15:40:00,84.5,71.0,29.66,West,270,0.0,0.0,64,0.00,,---,0.00,VWS V13.01,2013-06-04 19:40:00,
2013-06-04 15:45:00,84.5,71.0,29.66,West,270,0.0,0.0,64,0.00,,---,0.00,VWS V13.01,2013-06-04 19:45:00,
2013-06-04 15:50:00,84.5,71.0,29.66,West,270,0.0,0.0,64,0.00,,---,0.00,VWS V13.01,2013-06-04 19:50:00,
2013-06-04 15:55:00,84.5,71.0,29.66,West,270,0.0,0.0,64,0.00,,---,0.00,VWS V13.01,2013-06-04 19:55:00,
2013-06-04 16:00:00,84.5,71.0,29.66,West,270,0.0,0.0,64,0.00,,---,0.00,VWS V13.01,2013-06-04 20:00:00,
2013-06-04 16:05:00,84.5,71.0,29.66,West,270,0.0,0.0,64,0.00,,---,0.00,VWS V13.01,2013-06-04 20:05:00,
2013-06-04 16:10:00,84.5,71.4,29.65,West,270,0.0,0.0,65,0.00,,---,0.00,VWS V13.01,2013-06-04 20:10:00,
2013-06-04 16:15:00,84.5,71.4,29.65,West,270,0.0,0.0,65,0.00,,---,0.00,VWS V13.01,2013-06-04 20:15:00,
2013-06-04 16:20:00,84.5,71.4,29.65,West,270,0.0,0.0,65,0.00,,---,0.00,VWS V13.01,2013-06-04 20:20:00,
2013-06-04 16:25:00,84.7,72.1,29.65,SSW,202,0.0,0.0,66,0.00,,---,0.00,VWS V13.01,2013-06-04 20:25:00,
2013-06-04 16:30:00,84.7,72.1,29.65,SSW,202,0.0,0.0,66,0.00,,---,0.00,VWS V13.01,2013-06-04 20:30:00,
2013-06-04 16:35:00,84.9,71.8,29.65,SSW,202,0.0,0.0,65,0.00,,---,0.00,VWS V13.01,2013-06-04 20:35:00,
2013-06-04 16:40:00,84.9,71.8,29.65,SSW,202,0.0,0.0,65,0.00,,---,0.00,VWS V13.01,2013-06-04 20:40:00,
2013-06-04 16:45:00,84.9,71.8,29.65,SSW,202,0.0,0.0,65,0.00,,---,0.00,VWS V13.01,2013-06-04 20:45:00,
2013-06-04 16:50:00,84.7,71.6,29.65,SSW,202,0.0,0.0,65,0.00,,---,0.00,VWS V13.01,2013-06-04 20:50:00,
2013-06-04 16:55:00,84.7,71.6,29.65,SSW,202,0.0,0.0,65,0.00,,---,0.00,VWS V13.01,2013-06-04 20:55:00,
2013-06-04 17:00:00,84.7,71.6,29.65,SSW,202,0.0,0.0,65,0.00,,---,0.00,VWS V13.01,2013-06-04 21:00:00,
2013-06-04 17:05:00,84.5,71.4,29.65,SSW,202,0.0,0.0,65,0.00,,---,0.00,VWS V13.01,2013-06-04 21:05:00,
2013-06-04 17:10:00,84.5,71.9,29.65,SSW,202,0.0,0.0,66,0.00,,---,0.00,VWS V13.01,2013-06-04 21:10:00,
2013-06-04 17:15:00,84.5,71.9,29.65,SSW,202,0.0,0.0,66,0.00,,---,0.00,VWS V13.01,2013-06-04 21:15:00,
2013-06-04 17:21:00,84.3,71.7,29.65,SSW,202,0.0,0.0,66,0.00,,---,0.00,VWS V13.01,2013-06-04 21:21:00,
2013-06-04 17:26:00,84.3,71.7,29.65,SSW,202,0.0,0.0,66,0.00,,---,0.00,VWS V13.01,2013-06-04 21:26:00,
2013-06-04 17:32:00,84.3,71.7,29.65,SSW,202,0.0,0.0,66,0.00,,---,0.00,VWS V13.01,2013-06-04 21:32:00,
2013-06-04 17:37:00,84.0,71.4,29.65,SSW,202,0.0,0.0,66,0.00,,---,0.00,VWS V13.01,2013-06-04 21:37:00,
2013-06-04 17:42:00,84.0,71.4,29.65,SSW,202,0.0,0.0,66,0.00,,---,0.00,VWS V13.01,2013-06-04 21:42:00,
2013-06-04 17:47:00,83.8,71.7,29.65,SSW,202,0.0,0.0,67,0.00,,---,0.00,VWS V13.01,2013-06-04 21:47:00,
2013-06-04 17:53:00,83.8,72.1,29.65,SSW,202,0.0,0.0,68,0.00,,---,0.00,VWS V13.01,2013-06-04 21:53:00,
2013-06-04 17:58:00,83.8,72.1,29.65,SSW,202,0.0,0.0,68,0.00,,---,0.00,VWS V13.01,2013-06-04 21:58:00,
2013-06-04 18:03:00,83.8,72.1,29.65,SSW,202,0.0,0.0,68,0.00,,---,0.00,VWS V13.01,2013-06-04 22:03:00,
2013-06-04 18:08:00,83.8,72.1,29.65,SSW,202,0.0,0.0,68,0.00,,---,0.00,VWS V13.01,2013-06-04 22:08:00,
2013-06-04 18:13:00,83.8,72.1,29.65,SSW,202,0.0,0.0,68,0.00,,---,0.00,VWS V13.01,2013-06-04 22:13:00,
2013-06-04 18:18:00,83.8,72.1,29.65,SSW,202,0.0,0.0,68,0.00,,---,0.00,VWS V13.01,2013-06-04 22:18:00,
2013-06-04 18:23:00,83.8,72.1,29.65,SSW,202,0.0,0.0,68,0.00,,---,0.00,VWS V13.01,2013-06-04 22:23:00,
2013-06-04 18:28:00,83.8,72.1,29.65,SSW,202,0.0,0.0,68,0.00,,---,0.00,VWS V13.01,2013-06-04 22:28:00,
2013-06-04 18:33:00,83.8,72.1,29.65,SSW,202,0.0,0.0,68,0.00,,---,0.00,VWS V13.01,2013-06-04 22:33:00,
2013-06-04 18:38:00,83.8,72.1,29.65,SSW,202,0.0,0.0,68,0.00,,---,0.00,VWS V13.01,2013-06-04 22:38:00,
2013-06-04 18:43:00,82.5,73.0,29.66,SSW,202,0.0,0.0,73,0.00,,---,0.00,VWS V13.01,2013-06-04 22:43:00,
2013-06-04 18:48:00,82.5,73.0,29.66,SSW,202,0.0,0.0,73,0.00,,---,0.00,VWS V13.01,2013-06-04 22:48:00,
2013-06-04 18:54:00,82.5,73.0,29.66,SSW,202,0.0,0.0,73,0.00,,---,0.00,VWS V13.01,2013-06-04 22:54:00,
2013-06-04 18:59:00,82.5,73.0,29.66,SSW,202,0.0,0.0,73,0.00,,---,0.00,VWS V13.01,2013-06-04 22:59:00,
2013-06-04 19:04:00,82.5,73.0,29.67,SSW,202,0.0,0.0,73,0.00,,---,0.00,VWS V13.01,2013-06-04 23:04:00,
2013-06-04 19:09:00,82.5,73.0,29.67,SSW,202,0.0,0.0,73,0.00,,---,0.00,VWS V13.01,2013-06-04 23:09:00,
2013-06-04 19:14:00,82.5,73.0,29.67,SSW,202,0.0,0.0,73,0.00,,---,0.00,VWS V13.01,2013-06-04 23:14:00,
2013-06-04 19:19:00,82.5,73.0,29.67,SSW,202,0.0,0.0,73,0.00,,---,0.00,VWS V13.01,2013-06-04 23:19:00,
2013-06-04 19:24:00,82.5,73.0,29.67,SSW,202,0.0,0.0,73,0.00,,---,0.00,VWS V13.01,2013-06-04 23:24:00,
2013-06-04 19:29:00,82.5,73.0,29.67,SSW,202,0.0,0.0,73,0.00,,---,0.00,VWS V13.01,2013-06-04 23:29:00,
2013-06-04 19:34:00,81.5,72.0,29.67,SSW,202,0.0,0.0,73,0.00,,---,0.00,VWS V13.01,2013-06-04 23:34:00,
2013-06-04 19:39:00,81.5,72.0,29.67,SSW,202,0.0,0.0,73,0.00,,---,0.00,VWS V13.01,2013-06-04 23:39:00,
2013-06-04 19:44:00,81.5,72.0,29.67,SSW,202,0.0,0.0,73,0.00,,---,0.00,VWS V13.01,2013-06-04 23:44:00,
2013-06-04 19:50:00,81.5,72.0,29.67,SSW,202,0.0,0.0,73,0.00,,---,0.00,VWS V13.01,2013-06-04 23:50:00,
2013-06-04 19:55:00,81.5,72.0,29.67,SSW,202,0.0,0.0,73,0.00,,---,0.00,VWS V13.01,2013-06-04 23:55:00,
2013-06-04 20:00:00,81.5,72.0,29.67,SSW,202,0.0,0.0,73,0.00,,---,0.00,VWS V13.01,2013-06-05 00:00:00,
2013-06-04 20:05:00,81.5,72.0,29.67,SSW,202,0.0,0.0,73,0.00,,---,0.00,VWS V13.01,2013-06-05 00:05:00,
2013-06-04 20:10:00,81.5,72.0,29.67,SSW,202,0.0,0.0,73,0.00,,---,0.00,VWS V13.01,2013-06-05 00:10:00,
2013-06-04 20:15:00,81.5,72.0,29.67,SSW,202,0.0,0.0,73,0.00,,---,0.00,VWS V13.01,2013-06-05 00:15:00,
2013-06-04 20:20:00,81.5,72.0,29.67,SSW,202,0.0,0.0,73,0.00,,---,0.00,VWS V13.01,2013-06-05 00:20:00,
2013-06-04 20:25:00,81.5,72.0,29.67,SSW,202,0.0,0.0,73,0.00,,---,0.00,VWS V13.01,2013-06-05 00:25:00,
2013-06-04 20:30:00,81.5,72.0,29.67,SSW,202,0.0,0.0,73,0.00,,---,0.00,VWS V13.01,2013-06-05 00:30:00,
2013-06-04 20:35:00,81.5,72.0,29.67,SSW,202,0.0,0.0,73,0.00,,---,0.00,VWS V13.01,2013-06-05 00:35:00,
2013-06-04 20:41:00,81.5,72.0,29.67,SSW,202,0.0,0.0,73,0.00,,---,0.00,VWS V13.01,2013-06-05 00:41:00,
2013-06-04 20:46:00,81.5,72.0,29.67,SSW,202,0.0,0.0,73,0.00,,---,0.00,VWS V13.01,2013-06-05 00:46:00,
2013-06-04 20:51:00,81.5,72.0,29.67,SSW,202,0.0,0.0,73,0.00,,---,0.00,VWS V13.01,2013-06-05 00:51:00,
2013-06-04 20:56:00,81.5,72.0,29.67,SSW,202,0.0,0.0,73,0.00,,---,0.00,VWS V13.01,2013-06-05 00:56:00,
2013-06-04 21:01:00,77.1,70.5,29.69,SW,225,0.0,0.0,80,0.00,,---,0.00,VWS V13.01,2013-06-05 01:01:00,
2013-06-04 21:06:00,77.1,70.5,29.69,SW,225,0.0,0.0,80,0.00,,---,0.00,VWS V13.01,2013-06-05 01:06:00,
2013-06-04 21:11:00,77.1,70.5,29.69,SW,225,0.0,0.0,80,0.08,,---,0.08,VWS V13.01,2013-06-05 01:11:00,
2013-06-04 21:16:00,77.1,70.5,29.69,SW,225,0.0,0.0,80,0.08,,---,0.08,VWS V13.01,2013-06-05 01:16:00,
2013-06-04 21:21:00,77.0,70.7,29.68,SW,225,0.0,0.0,81,0.08,,---,0.08,VWS V13.01,2013-06-05 01:21:00,
2013-06-04 21:27:00,77.0,70.7,29.69,SW,225,0.0,0.0,81,0.08,,---,0.08,VWS V13.01,2013-06-05 01:27:00,
2013-06-04 21:32:00,77.0,70.7,29.69,SW,225,0.0,0.0,81,0.08,,---,0.08,VWS V13.01,2013-06-05 01:32:00,
2013-06-04 21:37:00,76.8,70.5,29.69,SW,225,0.0,0.0,81,0.08,,---,0.08,VWS V13.01,2013-06-05 01:37:00,
2013-06-04 21:42:00,76.8,70.9,29.69,SW,225,0.0,0.0,82,0.08,,---,0.08,VWS V13.01,2013-06-05 01:42:00,
2013-06-04 21:47:00,76.8,70.9,29.69,SW,225,0.0,0.0,82,0.08,,---,0.08,VWS V13.01,2013-06-05 01:47:00,
2013-06-04 21:52:00,76.8,70.9,29.69,SW,225,0.0,0.0,82,0.08,,---,0.08,VWS V13.01,2013-06-05 01:52:00,
2013-06-04 21:58:00,76.8,70.9,29.69,SW,225,0.0,0.0,82,0.08,,---,0.08,VWS V13.01,2013-06-05 01:58:00,
2013-06-04 22:03:00,76.8,70.9,29.69,SW,225,0.0,0.0,82,0.08,,---,0.08,VWS V13.01,2013-06-05 02:03:00,
2013-06-04 22:08:00,76.6,70.7,29.69,SW,225,0.0,0.0,82,0.00,,---,0.08,VWS V13.01,2013-06-05 02:08:00,
2013-06-04 22:13:00,76.6,70.7,29.69,SW,225,0.0,0.0,82,0.00,,---,0.08,VWS V13.01,2013-06-05 02:13:00,
2013-06-04 22:18:00,76.4,70.5,29.69,SW,225,0.0,0.0,82,0.00,,---,0.08,VWS V13.01,2013-06-05 02:18:00,
2013-06-04 22:23:00,76.6,70.7,29.69,SW,225,0.0,0.0,82,0.00,,---,0.08,VWS V13.01,2013-06-05 02:23:00,
2013-06-04 22:28:00,76.6,71.1,29.69,SW,225,0.0,0.0,83,0.00,,---,0.08,VWS V13.01,2013-06-05 02:28:00,
2013-06-04 22:33:00,76.6,71.1,29.69,SW,225,0.0,0.0,83,0.00,,---,0.08,VWS V13.01,2013-06-05 02:33:00,
2013-06-04 22:39:00,76.6,71.1,29.69,SW,225,0.0,0.0,83,0.00,,---,0.08,VWS V13.01,2013-06-05 02:39:00,
2013-06-04 22:44:00,76.6,71.1,29.69,SW,225,0.0,0.0,83,0.00,,---,0.08,VWS V13.01,2013-06-05 02:44:00,
2013-06-04 22:49:00,76.6,71.1,29.69,SW,225,0.0,0.0,83,0.00,,---,0.08,VWS V13.01,2013-06-05 02:49:00,
2013-06-04 22:55:00,76.2,70.7,29.69,SW,225,0.0,0.0,83,0.00,,---,0.08,VWS V13.01,2013-06-05 02:55:00,
2013-06-04 23:00:00,76.2,70.7,29.69,SW,225,0.0,0.0,83,0.00,,---,0.08,VWS V13.01,2013-06-05 03:00:00,
2013-06-04 23:05:00,76.2,70.7,29.69,SW,225,0.0,0.0,83,0.00,,---,0.08,VWS V13.01,2013-06-05 03:05:00,
2013-06-04 23:10:00,76.2,70.7,29.69,SW,225,0.0,0.0,83,0.00,,---,0.08,VWS V13.01,2013-06-05 03:10:00,
2013-06-04 23:15:00,76.2,70.7,29.69,SW,225,0.0,0.0,83,0.00,,---,0.08,VWS V13.01,2013-06-05 03:15:00,
2013-06-04 23:20:00,76.2,70.7,29.69,SW,225,0.0,0.0,83,0.00,,---,0.08,VWS V13.01,2013-06-05 03:20:00,
2013-06-04 23:25:00,76.2,70.7,29.68,SW,225,0.0,0.0,83,0.00,,---,0.08,VWS V13.01,2013-06-05 03:25:00,
2013-06-04 23:30:00,76.2,71.0,29.68,SW,225,0.0,0.0,84,0.00,,---,0.08,VWS V13.01,2013-06-05 03:30:00,
2013-06-04 23:35:00,76.2,71.0,29.68,SW,225,0.0,0.0,84,0.00,,---,0.08,VWS V13.01,2013-06-05 03:35:00,
2013-06-04 23:40:00,76.1,70.9,29.68,SW,225,0.0,0.0,84,0.00,,---,0.08,VWS V13.01,2013-06-05 03:40:00,
2013-06-04 23:45:00,76.1,70.9,29.68,SW,225,0.0,0.0,84,0.00,,---,0.08,VWS V13.01,2013-06-05 03:45:00,
2013-06-04 23:50:00,76.1,70.9,29.68,SW,225,0.0,0.0,84,0.00,,---,0.08,VWS V13.01,2013-06-05 03:50:00,
2013-06-04 23:55:00,76.1,70.9,29.68,SW,225,0.0,0.0,84,0.00,,---,0.08,VWS V13.01,2013-06-05 03:55:00,